Weather in Raahe

Finland     64°40′15″N   24°29′22″E
temp.,
°C
wind,
m/s
gust,
m/s
humid.,
%
clouds,
%
prec.,
mm/h
press.,
hPa
HPBL,
m
7 may, fri
fri700:000nne5881100 0.0 1000231
03:000nne5888100 0.0 999260
06:00−1nne7885100 0.0 998456
09:00−1n7888100 0.0 998434
12:00−1nnw6894100 0.5 999482
15:000wnw4788100 0.7 999445
18:00+1wnw6887100 0.1 999701
21:00+1w7989100 0.3 1000715
8 may, sat
sat800:000w7995100 0.7 1001562
03:00+1w6885100 0.9 1001509
06:00+1w578498 0.1 1002410
09:00+1wsw45818 0.1 1003285
12:00+1wsw567959 0.0 1004295
15:00+1sw577818 0.0 1005232
18:00+2sw58766 0.0 1006202
21:00+2ssw587742 0.0 1006119
9 may, sun
sun900:00+2s577886 0.0 1006102
03:00+1ssw68845 0.0 1007142
06:00+2sw56830 0.0 100789
09:00+2sw68794 0.0 1008172
12:00+1sw69814 0.0 1009241
15:00+2wsw58775 0.0 1009197
18:00+2sw57837 0.0 1009162
21:00+1sw689577 0.0 1010117
10 may, mon
mon1000:00+2ssw689297 0.0 1011108
03:00+2ssw5889100 0.0 1012112
06:00+3ssw4788100 0.0 101276
09:00+4ssw238299 0.0 101464
12:00+5n127699 0.0 1014150
15:00+4s0285100 0.0 101499
18:00+5se3495100 1.3 101347
21:00+4e5699100 5.2 101154
11 may, tue
tue1100:00+4e33100100 5.4 101040
03:00+4sw58100100 7.3 101182
06:00+3sse34100100 0.5 101040
09:00+7ssw699378 0.6 1010107
12:00+4wsw4999100 0.0 1011114
15:00+3sw8159897 0.0 1013195
18:00+3wsw5799100 0.0 1015106
21:00+2ssw2399100 0.1 101735